Hourly Data Report for September 20, 2019

TORONTO CITY
ONTARIO
Current Station Operator: ECCC - MSC

43°40'00.000" N
79°24'00.000" W
112.50 m
6158355
71508
XTO

Download Data

Hourly Data (September 2019)
Hourly Data Report for September 20, 2019
TIME
LST
Temp Definition
°C
Dew Point Definition
°C
Rel Hum Definition
%
Precip. Amount Definition
mm

Wind Dir Definition
10's deg

Wind Spd Definition
km/h
Visibility Definition
km
Stn Press Definition
kPa
Hmdx Definition


Wind Chill Definition


Weather Definition


00:00 17.3 13.9 80 0.0       100.84     LegendNANA
01:00 16.8 14.1 84 0.0       100.82     LegendNANA
02:00 15.4 13.0 86 0.0       100.83     LegendNANA
03:00 15.2 13.3 88 0.0       100.82     LegendNANA
04:00 14.7 12.7 87 0.0       100.86     LegendNANA
05:00 14.4 12.7 89 0.0       100.88     LegendNANA
06:00 14.8 13.0 89 0.0       100.89     LegendNANA
07:00 15.3 13.5 89 0.0       100.92     LegendNANA
08:00 17.4 14.0 80 0.0       100.94     LegendNANA
09:00 19.6 13.6 68 0.0       100.95     LegendNANA
10:00 20.3 14.0 67 0.0       100.96     LegendNANA
11:00 21.5 13.7 61 0.0       100.93 25   LegendNANA
12:00 22.2 13.4 57 0.0       100.89 25   LegendNANA
13:00 22.5 13.4 56 0.0       100.85 26   LegendNANA
14:00 23.5 13.6 54 0.0       100.79 27   LegendNANA
15:00 24.0 13.0 50 0.0       100.74 27   LegendNANA
16:00 23.1 13.6 55 0.0       100.73 26   LegendNANA
17:00 22.2 13.4 57 0.0       100.74 25   LegendNANA
18:00 21.1 13.8 63 0.0       100.76     LegendNANA
19:00 20.2 13.5 65 0.0       100.79     LegendNANA
20:00 20.2 14.0 67 0.0       100.83     LegendNANA
21:00 20.2 14.4 70 0.0       100.84     LegendNANA
22:00 19.8 14.6 72 0.0       100.82     LegendNANA
23:00 19.4 15.3 77 0.0       100.79     LegendNANA

Notes on Data Quality.

Legend

  • E = Estimated
  • M = Missing
  • NA = Not Available*
  • [empty] = Indicates an unobserved value
Date modified: